Powrót do katalogu

CZ-6A DEB

AktywnyPO
NORAD 54591·DEBRIS·🇨🇳 China

Wystrzelony Nov 11, 2022 z Taiyuan Satellite Launch Center

Loading…

Następne Przeloty (najbliższe 24 godziny)

TLE

ŚwieżeSource: Space-Track

Epoka: Sep 12, 2026, 18:16 UTC

1 54591U 22151MR  26255.76117884  .00014221  00000-0  13461-2 0  9994
2 54591  98.7165   2.5442 0075975 329.1056  30.5700 14.91577990129603

Śledź CZ-6A DEB w czasie rzeczywistym z AllMySat

Download on the App Store